Weather History for Roswell, NM

Change the Weather History Date:

Thursday, September 20, 2012

  Actual Average Record
Temperature  
Mean Temperature 76 °F 71 °F  
Max Temperature 95 °F 84 °F 100 °F (1977)
Min Temperature 56 °F 57 °F 33 °F (1971)
Degree Days  
Heating Degree Days 0 1  
Month to date heating degree days 9 3  
Since 1 July heating degree days 9 3  
Cooling Degree Days 11 6  
Month to date cooling degree days 201 180  
Year to date cooling degree days 2229 1704  
Growing Degree Days 25 (Base 50)    
Moisture  
Dew Point 34 °F    
Average Humidity 31    
Maximum Humidity 51    
Minimum Humidity 10    
Precipitation  
Precipitation 0.00 in 0.04 in 0.93 in (1936)
Month to date precipitation 0.80 1.07  
Year to date precipitation 4.80 10.00  
Sea Level Pressure  
Sea Level Pressure 29.85 in    
Wind  
Wind Speed 5 mph (South)    
Max Wind Speed 16 mph    
Max Gust Speed 24 mph    
Visibility 10 miles    
Events      
T = Trace of Precipitation, MM = Missing Value Source: NWS Daily Summary

Daily Weather History Graph

Daily Weather History Graph

Search for Another Location

Airport:

Trip Planner

Search our weather history database for the weather conditions in past years. The results will help you decide how hot, cold, wet, or windy it might be!

Date:

Astronomy

Sep. 20, 2012 Rise Set
Actual Time 6:45 AM MDT 6:56 PM MDT
Civil Twilight 6:20 AM MDT 7:21 PM MDT
Nautical Twilight 5:51 AM MDT 7:50 PM MDT
Astronomical Twilight 5:22 AM MDT 8:19 PM MDT
Moon 11:48 AM MDT (9/20) 10:19 PM MDT (9/20)
Length of Visible Light 13h 01m
Length of Day
12h 11m
Waxing Crescent, 27% of the Moon is Illuminated
Sep 20
Waxing Crescent
Sep 22
First Quarter
Sep 29
Full
Oct 8
Last Quarter
Oct 15
New

Hourly Weather History & Observations

Time (MDT) Temp. Dew Point Humidity Pressure Visibility Wind Dir Wind Speed Gust Speed Precip Events Conditions
12:51 AM 68.0 °F 36.0 °F 31% 29.86 in 10.0 mi SSW 5.8 mph - N/A   Clear
1:51 AM 66.9 °F 35.1 °F 31% 29.89 in 10.0 mi West 6.9 mph - N/A   Clear
2:51 AM 69.1 °F 35.1 °F 29% 29.87 in 10.0 mi West 5.8 mph - N/A   Clear
3:51 AM 61.0 °F 36.0 °F 39% 29.88 in 10.0 mi South 8.1 mph - N/A   Clear
4:51 AM 60.1 °F 37.9 °F 44% 29.88 in 10.0 mi Calm Calm - N/A   Clear
5:51 AM 57.9 °F 39.9 °F 51% 29.90 in 10.0 mi NNW 3.5 mph - N/A   Clear
6:51 AM 57.0 °F 39.9 °F 53% 29.92 in 10.0 mi Calm Calm - N/A   Clear
7:51 AM 61.0 °F 41.0 °F 48% 29.94 in 10.0 mi North 3.5 mph - N/A   Clear
8:51 AM 66.9 °F 41.0 °F 39% 29.93 in 10.0 mi North 4.6 mph - N/A   Clear
9:51 AM 75.0 °F 41.0 °F 29% 29.92 in 10.0 mi North 3.5 mph - N/A   Clear
10:51 AM 81.0 °F 39.0 °F 22% 29.91 in 10.0 mi Calm Calm - N/A   Clear
11:51 AM 87.1 °F 37.0 °F 17% 29.87 in 10.0 mi Calm Calm - N/A   Clear
12:51 PM 91.0 °F 39.9 °F 17% 29.85 in 10.0 mi ENE 6.9 mph - N/A   Clear
1:51 PM 91.9 °F 30.0 °F 11% 29.82 in 10.0 mi Calm Calm - N/A   Clear
2:51 PM 93.9 °F 28.9 °F 10% 29.78 in 10.0 mi Variable 5.8 mph - N/A   Clear
3:51 PM 93.9 °F 28.0 °F 10% 29.78 in 10.0 mi Variable 5.8 mph - N/A   Clear
4:51 PM 93.9 °F 30.0 °F 10% 29.77 in 10.0 mi ESE 12.7 mph 20.7 mph N/A   Clear
5:51 PM 93.0 °F 28.0 °F 10% 29.77 in 10.0 mi SE 10.4 mph - N/A   Clear
6:51 PM 86.0 °F 30.0 °F 13% 29.79 in 10.0 mi SSE 8.1 mph - N/A   Clear
7:51 PM 82.9 °F 28.9 °F 14% 29.81 in 10.0 mi SSE 3.5 mph - N/A   Clear
8:51 PM 82.0 °F 28.9 °F 14% 29.81 in 10.0 mi Variable 6.9 mph - N/A   Clear
9:51 PM 82.0 °F 30.0 °F 15% 29.80 in 10.0 mi South 8.1 mph - N/A   Clear
10:51 PM 78.1 °F 30.9 °F 18% 29.80 in 10.0 mi Variable 3.5 mph - N/A   Clear
11:51 PM 71.1 °F 34.0 °F 26% 29.81 in 10.0 mi Calm Calm - N/A   Clear